Location: Glendale
(37.4556°N, 88.6714°W)
Time: 20:13:25
(UTC+00:00)

Aureole 1 Rocket - Pass Details

Date: 08 December 2019
Orbit: 378 x 1382 km, 73.9° (Epoch: 29 January)

Event Time Altitude Azimuth Distance (km) Brightness Sun altitude
Exits shadow 10:54:03 50° 267° (W) 1,195 4.0 -23.6°
Maximum altitude 10:54:24 50° 255° (WSW) 1,199 4.1 -23.6°
Drops below altitude 10° 11:01:13 10° 182° (S) 3,036 6.7 -22.2°
Sets 11:04:17 0° 178° (S) 4,126 7.5 -21.6°
